Location: Newark
(33.6333°S, 78.8500°W)
Time: 05:42:20
(UTC+00:00)

Explorer 11/Cluster Stage 4 - All Passes

Search period start: 22 September 2019 00:00
Search period end: 02 October 2019 00:00
Orbit: 467 x 1260 km, 28.8° (Epoch: 21 September)

Date Brightness Start Highest point End Pass type
(mag) Time Alt. Az. Time Alt. Az. Time Alt. Az.
22 Sep - 13:08:35 10° NNW 13:11:53 19° NNE 13:15:40 10° ENE daylight
22 Sep - 14:54:43 10° WNW 14:59:47 45° NNE 15:06:06 10° E daylight
22 Sep - 16:42:23 10° WNW 16:48:24 58° N 16:55:46 10° ENE daylight
22 Sep - 18:30:45 10° W 18:37:19 44° NNW 18:44:50 10° NE daylight
22 Sep - 20:20:24 10° WNW 20:26:07 22° NNW 20:32:07 10° NNE daylight
23 Sep - 12:57:49 10° NNW 13:01:10 20° NNE 13:05:04 10° ENE daylight
23 Sep - 14:44:12 10° WNW 14:49:06 47° NNE 14:55:14 10° E daylight
23 Sep - 16:31:53 10° W 16:37:41 56° N 16:44:49 10° ENE daylight
23 Sep - 18:20:15 10° W 18:26:30 40° NNW 18:33:45 10° NE daylight
23 Sep - 20:10:09 10° WNW 20:15:15 19° NNW 20:20:37 10° NNE daylight
24 Sep - 12:47:07 10° NNW 12:50:30 22° NNE 12:54:26 10° ENE daylight
24 Sep - 14:33:43 10° WNW 14:38:27 48° N 14:44:22 10° E daylight
24 Sep - 16:21:25 10° W 16:26:58 53° N 16:33:51 10° ENE daylight
24 Sep - 18:09:48 10° W 18:15:42 35° NNW 18:22:36 10° NE daylight
24 Sep - 20:00:05 10° WNW 20:04:23 16° NNW 20:08:57 10° N daylight
25 Sep - 12:36:28 10° NNW 12:39:51 24° NNE 12:43:47 10° ENE daylight
25 Sep - 14:23:15 10° WNW 14:27:48 48° N 14:33:31 10° E daylight
25 Sep - 16:10:59 10° W 16:16:16 50° N 16:22:53 10° ENE daylight
25 Sep - 17:59:24 10° WNW 18:04:56 31° NNW 18:11:24 10° NE daylight
25 Sep - 19:50:19 10° NW 19:53:34 13° NNW 19:56:57 10° N daylight
26 Sep - 12:25:51 10° NW 12:29:13 26° NNE 12:33:08 10° ENE daylight
26 Sep - 14:12:48 10° WNW 14:17:12 48° N 14:22:40 10° E daylight
26 Sep - 16:00:33 10° W 16:05:36 46° N 16:11:53 10° ENE daylight
26 Sep - 17:49:05 10° WNW 17:54:11 27° NNW 18:00:08 10° NE daylight
26 Sep - 19:41:35 10° NW 19:42:45 10° NNW 19:43:57 10° NNW daylight
27 Sep - 12:15:16 10° NW 12:18:38 27° NNE 12:22:30 10° ENE daylight
27 Sep - 14:02:23 10° WNW 14:06:36 48° N 14:11:51 10° ENE daylight
27 Sep - 15:50:10 10° W 15:54:57 41° N 16:00:53 10° ENE daylight
27 Sep - 17:38:50 10° WNW 17:43:27 23° NNW 17:48:47 10° NNE daylight
28 Sep - 12:04:42 10° NW 12:08:04 29° NNE 12:11:52 10° ENE daylight
28 Sep - 13:51:58 10° WNW 13:56:02 47° N 14:01:01 10° ENE daylight
28 Sep - 15:39:48 10° WNW 15:44:19 37° N 15:49:53 10° NE daylight
28 Sep - 17:28:43 10° WNW 17:32:45 19° NNW 17:37:20 10° NNE daylight
29 Sep - 10:08:47 10° N 10:09:51 11° NNE 10:10:56 10° NE visible
29 Sep - 11:54:09 10° NW 11:57:30 31° NNE 12:01:15 10° ENE daylight
29 Sep - 13:41:34 10° WNW 13:45:29 45° N 13:50:13 10° ENE daylight
29 Sep - 15:29:28 10° WNW 15:33:42 32° NNW 15:38:50 10° NE daylight
29 Sep - 17:18:47 10° WNW 17:22:04 16° NNW 17:25:42 10° NNE daylight
30 Sep - 09:57:27 10° N 09:59:16 13° NNE 10:01:04 10° NE visible
30 Sep - 11:43:37 10° NW 11:46:58 33° N 11:50:39 10° ENE daylight
30 Sep - 13:31:09 10° WNW 13:34:56 42° N 13:39:25 10° ENE daylight
30 Sep - 15:19:10 10° WNW 15:23:05 28° NNW 15:27:46 10° NE daylight
30 Sep - 17:09:14 10° NW 17:11:23 12° NNW 17:13:41 10° N daylight
01 Oct - 09:46:24 10° NNW 09:48:41 16° NNE 09:50:57 10° ENE visible
01 Oct - 11:33:05 10° WNW 11:36:27 35° N 11:40:04 10° ENE daylight
01 Oct - 13:20:46 10° WNW 13:24:24 39° N 13:28:38 10° ENE daylight
01 Oct - 15:08:56 10° WNW 15:12:30 23° NNW 15:16:39 10° NE daylight
